DW0398 Weather Reports


Display with metric or nautical units.
time (UTC)temp
F
wind
direction
speed
MPH
gust
MPH
rain 1hr
in
rain 24hr
in
rain mn
in
humidity
%
barometer
mb
20260507220304 57 276 3.0 9.0 0.00 0.00 0.00 48 1011.0
20260507215804 57 290 3.0 10.0 0.00 0.00 0.00 48 1010.9
20260507215306 57 291 3.0 12.0 0.00 0.00 0.00 48 1010.8
20260507214804 57 330 4.0 8.0 0.00 0.00 0.00 49 1010.8
20260507214305 57 289 3.0 5.0 0.00 0.00 0.00 49 1010.8
20260507213304 57 289 2.0 10.0 0.00 0.00 0.00 47 1010.5
20260507212804 58 326 3.0 12.0 0.00 0.00 0.00 46 1010.6
20260507211804 59 310 5.0 12.0 0.00 0.00 0.00 46 1010.8
20260507211304 59 300 4.0 10.0 0.00 0.00 0.00 45 1010.7
20260507210804 59 292 6.0 10.0 0.00 0.00 0.00 46 1010.5
20260507210304 58 292 5.0 13.0 0.00 0.00 0.00 45 1010.4
20260507205804 57 293 5.0 9.0 0.00 0.00 0.00 46 1010.4
20260507205306 57 282 5.0 14.0 0.00 0.00 0.00 47 1010.4
20260507204804 58 277 5.0 10.0 0.00 0.00 0.00 47 1010.6
20260507204304 58 271 6.0 12.0 0.00 0.00 0.00 47 1010.5
20260507203304 59 279 4.0 10.0 0.00 0.00 0.00 47 1010.6
20260507202804 59 286 3.0 10.0 0.00 0.00 0.00 50 1010.5
20260507201804 58 304 3.0 12.0 0.00 0.00 0.00 48 1010.6
20260507200803 58 281 6.0 12.0 0.00 0.00 0.00 46 1010.7
20260507195306 59 269 6.0 12.0 0.00 0.00 0.00 46 1010.8
20260507193804 59 300 3.0 10.0 0.00 0.00 0.00 44 1010.9
20260507193304 58 296 5.0 13.0 0.00 0.00 0.00 50 1011.1
20260507192804 58 292 5.0 10.0 0.00 0.00 0.00 46 1011.0
20260507192307 58 277 5.0 12.0 0.00 0.00 0.00 46 1011.1
20260507191805 59 262 9.0 14.0 0.00 0.00 0.00 46 1011.0
20260507190804 59 283 6.0 13.0 0.00 0.00 0.00 46 1011.0
20260507190305 59 280 5.0 12.0 0.00 0.00 0.00 48 1011.0
20260507185804 59 285 7.0 12.0 0.00 0.00 0.00 46 1011.1
20260507185306 59 338 5.0 12.0 0.00 0.00 0.00 48 1011.2
20260507184805 59 307 4.0 12.0 0.00 0.00 0.00 48 1011.2
20260507183804 58 312 5.0 12.0 0.00 0.00 0.00 52 1011.4
20260507182805 57 354 2.0 10.0 0.00 0.00 0.00 50 1011.4
20260507182307 58 293 3.0 10.0 0.00 0.00 0.00 52 1011.5
20260507181804 58 234 5.0 10.0 0.00 0.00 0.00 51 1011.4
20260507181304 57 311 3.0 7.0 0.00 0.00 0.00 52 1011.5
20260507180805 57 291 2.0 8.0 0.00 0.00 0.00 55 1011.5
20260507180304 57 322 4.0 8.0 0.00 0.00 0.00 53 1011.5
20260507175805 56 310 6.0 10.0 0.00 0.00 0.00 50 1011.6
20260507175306 57 342 3.0 8.0 0.00 0.00 0.00 51 1011.6
20260507174804 58 318 5.0 12.0 0.00 0.00 0.00 52 1011.6
20260507174304 57 244 4.0 9.0 0.00 0.00 0.00 54 1011.6
20260507173804 56 277 6.0 8.0 0.00 0.00 0.00 53 1011.7
20260507173304 56 315 2.0 9.0 0.00 0.00 0.00 53 1011.7
20260507172804 56 223 3.0 5.0 0.00 0.00 0.00 55 1011.8
20260507171804 55 289 3.0 8.0 0.00 0.00 0.00 57 1012.0
20260507171304 55 283 2.0 5.0 0.00 0.00 0.00 55 1012.0
20260507170804 55 354 3.0 10.0 0.00 0.00 0.00 56 1012.1
20260507170304 56 275 2.0 7.0 0.00 0.00 0.00 56 1012.1
20260507165804 56 254 6.0 9.0 0.00 0.00 0.00 55 1012.1
20260507165306 56 359 1.0 5.0 0.00 0.00 0.00 55 1012.1
20260507164805 56 289 1.0 8.0 0.00 0.00 0.00 55 1012.2
20260507164304 57 260 5.0 12.0 0.00 0.00 0.00 55 1012.1
20260507163805 57 328 7.0 13.0 0.00 0.00 0.00 56 1012.2
20260507163304 56 267 7.0 13.0 0.00 0.00 0.00 55 1012.2
20260507162806 57 262 3.0 7.0 0.00 0.00 0.00 53 1012.3
20260507162307 56 286 2.0 12.0 0.00 0.00 0.00 54 1012.2
20260507161304 57 282 5.0 9.0 0.00 0.00 0.00 54 1012.4
20260507160805 56 255 5.0 8.0 0.00 0.00 0.00 56 1012.4
20260507160304 56 263 5.0 12.0 0.00 0.00 0.00 56 1012.5
20260507155804 55 275 1.0 5.0 0.00 0.00 0.00 58 1012.5
20260507155306 55 86 1.0 7.0 0.00 0.00 0.00 56 1012.6
20260507154804 54 340 1.0 8.0 0.00 0.00 0.00 57 1012.7
20260507154304 54 324 0.0 3.0 0.00 0.00 0.00 58 1012.8
20260507153804 55 300 1.0 9.0 0.00 0.00 0.00 56 1012.8
20260507153304 55 319 1.0 5.0 0.00 0.00 0.00 56 1012.8
20260507152804 55 253 4.0 10.0 0.00 0.00 0.00 53 1013.0
20260507152306 55 263 4.0 12.0 0.00 0.00 0.00 59 1013.0
20260507151804 54 313 3.0 7.0 0.00 0.00 0.00 58 1013.0
20260507151304 54 319 3.0 9.0 0.00 0.00 0.00 58 1013.1
20260507150804 54 291 3.0 7.0 0.00 0.00 0.00 59 1013.3
20260507145804 55 223 3.0 8.0 0.00 0.00 0.00 57 1013.3
20260507145306 54 269 1.0 5.0 0.00 0.00 0.00 64 1013.4
20260507144804 54 297 1.0 3.0 0.00 0.00 0.00 64 1013.5
20260507144304 53 262 3.0 7.0 0.00 0.00 0.00 63 1013.6
20260507143804 53 253 5.0 10.0 0.00 0.00 0.00 64 1013.7
20260507143304 54 261 5.0 9.0 0.00 0.00 0.00 63 1013.7
20260507142804 53 265 4.0 9.0 0.00 0.00 0.00 63 1013.8
20260507142306 53 288 5.0 9.0 0.00 0.00 0.00 62 1013.9
20260507141804 53 246 3.0 8.0 0.00 0.00 0.00 63 1013.9
20260507141304 53 246 4.0 10.0 0.00 0.00 0.00 64 1014.0
20260507140804 53 264 3.0 12.0 0.00 0.00 0.00 67 1014.1
20260507135805 52 279 3.0 7.0 0.00 0.00 0.00 65 1014.1
20260507135306 52 274 3.0 8.0 0.00 0.00 0.00 68 1014.2
20260507134804 52 246 3.0 7.0 0.00 0.00 0.00 69 1014.2
20260507134304 52 281 3.0 8.0 0.00 0.00 0.00 69 1014.2
20260507133306 51 280 2.0 5.0 0.00 0.01 0.00 71 1014.2
20260507132805 51 271 3.0 6.0 0.00 0.01 0.00 72 1014.2
20260507132307 50 261 2.0 7.0 0.00 0.01 0.00 74 1014.2
20260507131304 50 232 2.0 6.0 0.00 0.02 0.00 75 1014.3
20260507130304 49 228 2.0 3.0 0.00 0.02 0.00 77 1014.3
20260507125306 48 258 0.0 7.0 0.00 0.03 0.00 78 1014.3
20260507124804 48 112 1.0 5.0 0.00 0.03 0.00 78 1014.3
20260507124304 47 220 1.0 3.0 0.00 0.03 0.00 79 1014.3
20260507123804 47 201 2.0 3.0 0.00 0.03 0.00 80 1014.3
20260507123304 47 207 2.0 5.0 0.00 0.03 0.00 81 1014.3
20260507122804 47 245 2.0 5.0 0.00 0.04 0.00 82 1014.3
20260507122307 47 213 0.0 2.0 0.00 0.04 0.00 85 1014.2
20260507121804 46 225 0.0 1.0 0.00 0.04 0.00 87 1014.4
20260507121305 46 139 1.0 2.0 0.00 0.04 0.00 86 1014.3
20260507120305 45 64 0.0 1.0 0.00 0.05 0.00 90 1014.2
20260507115804 45 25 0.0 0.0 0.00 0.05 0.00 91 1014.3
20260507115307 44 25 0.0 0.0 0.00 0.05 0.00 92 1014.3
20260507114805 44 22 0.0 0.0 0.00 0.05 0.00 93 1014.3
20260507114304 43 22 0.0 0.0 0.00 0.05 0.00 93 1014.4
20260507112307 42 348 0.0 0.0 0.00 0.05 0.00 95 1014.3
20260507111804 42 348 0.0 0.0 0.00 0.05 0.00 96 1014.2
20260507111305 41 348 0.0 0.0 0.00 0.05 0.00 96 1014.2
20260507110804 40 348 0.0 0.0 0.00 0.05 0.00 96 1014.2
20260507110304 39 348 0.0 0.0 0.00 0.05 0.00 97 1014.2
20260507105804 39 348 0.0 0.0 0.00 0.06 0.00 97 1014.0
20260507104804 37 348 0.0 0.0 0.00 0.06 0.00 96 1013.9
20260507104304 35 348 0.0 0.0 0.00 0.07 0.00 96 1014.0
20260507103804 34 348 0.0 0.0 0.00 0.08 0.00 96 1014.0
20260507103304 33 348 0.0 0.0 0.00 0.10 0.00 96 1013.9
20260507102805 33 348 0.0 0.0 0.00 0.11 0.00 95 1013.8
20260507101804 33 348 0.0 0.0 0.00 0.13 0.00 95 1013.8
20260507101304 33 348 0.0 0.0 0.00 0.14 0.00 95 1013.8
20260507100804 34 348 0.0 0.0 0.00 0.15 0.00 95 1013.7
20260507100304 34 348 0.0 0.0 0.00 0.15 0.00 95 1013.7
20260507095804 34 348 0.0 0.0 0.00 0.15 0.00 95 1013.7
20260507095306 34 348 0.0 0.0 0.00 0.16 0.00 95 1013.7
20260507094804 34 348 0.0 0.0 0.00 0.16 0.00 95 1013.7
20260507094304 34 348 0.0 0.0 0.00 0.16 0.00 95 1013.7
20260507093804 34 348 0.0 0.0 0.00 0.16 0.00 95 1013.7
20260507093304 35 348 0.0 0.0 0.00 0.17 0.00 95 1013.7
20260507092804 35 348 0.0 0.0 0.00 0.18 0.00 95 1013.8
20260507092307 35 348 0.0 0.0 0.00 0.18 0.00 95 1013.8
20260507091804 35 348 0.0 0.0 0.00 0.19 0.00 95 1013.8
20260507091304 35 348 0.0 0.0 0.00 0.19 0.00 94 1013.9
20260507090804 35 348 0.0 0.0 0.00 0.20 0.00 94 1013.8
20260507090304 35 348 0.0 0.0 0.00 0.20 0.00 94 1013.7
20260507085804 35 348 0.0 0.0 0.00 0.21 0.00 94 1013.7
20260507085306 35 348 0.0 0.0 0.00 0.22 0.00 94 1013.7
20260507084804 35 348 0.0 0.0 0.00 0.23 0.00 94 1013.8
20260507084304 35 348 0.0 0.0 0.00 0.25 0.00 94 1013.8
20260507083805 36 348 0.0 0.0 0.00 0.25 0.00 94 1013.8
20260507083304 36 348 0.0 0.0 0.00 0.26 0.00 94 1013.9
20260507082804 36 348 0.0 0.0 0.00 0.27 0.00 94 1013.9
20260507082306 36 348 0.0 0.0 0.00 0.28 0.00 94 1013.8
20260507081804 36 348 0.0 0.0 0.00 0.29 0.00 93 1013.7
20260507081305 36 348 0.0 0.0 0.00 0.30 0.00 93 1013.8
20260507080804 37 348 0.0 0.0 0.00 0.30 0.00 93 1013.8
20260507075804 37 348 0.0 0.0 0.00 0.30 0.00 93 1013.9
20260507075307 37 348 0.0 0.0 0.00 0.30 0.00 92 1013.9
20260507074804 37 348 0.0 0.0 0.00 0.30 0.00 92 1013.8
20260507074304 37 348 0.0 0.0 0.00 0.30 0.00 92 1013.8
20260507073804 37 348 0.0 0.0 0.00 0.30 0.00 92 1013.8
20260507073305 38 348 0.0 0.0 0.00 0.30 0.00 91 1013.7
20260507072804 38 348 0.0 0.0 0.00 0.30 0.00 91 1013.7
20260507071304 38 348 0.0 0.0 0.00 0.30 0.00 90 1013.8
20260507070804 39 348 0.0 0.0 0.00 0.30 0.00 89 1013.9
20260507070304 39 348 0.0 0.0 0.00 0.30 0.00 89 1013.8
20260507065804 39 348 0.0 0.0 0.00 0.30 0.00 89 1013.7
20260507065306 40 348 0.0 0.0 0.00 0.30 0.00 89 1013.8
20260507064805 40 348 0.0 0.0 0.00 0.31 0.00 88 1013.8
20260507064305 40 348 0.0 0.0 0.00 0.31 0.00 88 1013.7
20260507063804 40 348 0.0 0.0 0.00 0.31 0.00 87 1013.7
20260507063304 40 348 0.0 0.0 0.00 0.31 0.00 87 1013.8
20260507062306 41 348 0.0 0.0 0.00 0.32 0.00 86 1013.8
20260507061804 41 348 0.0 0.0 0.00 0.33 0.00 86 1014.0
20260507061304 42 348 0.0 0.0 0.00 0.33 0.00 85 1014.1
20260507060805 42 348 0.0 0.0 0.00 0.34 0.00 85 1014.1
20260507060304 43 348 0.0 0.0 0.00 0.34 0.00 85 1014.0
20260507055804 43 348 0.0 1.0 0.00 0.35 0.00 86 1014.0
20260507054805 43 348 0.0 0.0 0.00 0.35 0.00 85 1013.9
20260507054305 43 348 0.0 0.0 0.00 0.36 0.00 85 1014.1
20260507053805 44 348 0.0 0.0 0.00 0.37 0.00 84 1014.2
20260507053304 44 348 0.0 0.0 0.00 0.37 0.00 83 1014.2
20260507052804 44 348 0.0 0.0 0.00 0.37 0.00 83 1014.4
20260507052306 44 348 0.0 0.0 0.00 0.38 0.00 83 1014.5
20260507051306 45 348 0.0 0.0 0.00 0.38 0.00 81 1014.6
20260507050805 45 348 0.0 0.0 0.00 0.39 0.00 78 1014.5
20260507050304 45 348 0.0 0.0 0.00 0.40 0.00 79 1014.5
20260507045804 45 348 0.0 0.0 0.00 0.40 0.00 79 1014.6
20260507045306 45 348 0.0 0.0 0.00 0.41 0.00 78 1014.6
20260507044305 45 348 0.0 1.0 0.00 0.42 0.00 78 1014.6
20260507043804 45 348 0.0 0.0 0.00 0.42 0.00 78 1014.6
20260507043304 45 348 0.0 0.0 0.00 0.42 0.00 77 1014.6
20260507042804 45 348 0.0 0.0 0.00 0.42 0.00 76 1014.5
20260507041804 46 329 0.0 1.0 0.00 0.42 0.00 77 1014.5
20260507041304 46 9 0.0 0.0 0.00 0.42 0.00 77 1014.5
20260507040804 46 9 0.0 1.0 0.00 0.42 0.00 77 1014.5
20260507040304 46 3 0.0 1.0 0.00 0.42 0.00 77 1014.4
20260507035804 46 1 0.0 1.0 0.00 0.42 0.42 76 1014.5
20260507035306 46 1 0.0 2.0 0.00 0.42 0.42 75 1014.4
20260507034304 46 353 0.0 1.0 0.00 0.42 0.42 74 1014.1
20260507033804 46 352 1.0 2.0 0.00 0.42 0.42 74 1014.0
20260507033304 46 3 1.0 2.0 0.00 0.42 0.42 74 1014.0
20260507032808 46 357 0.0 3.0 0.00 0.42 0.42 74 1014.0
20260507032306 46 354 0.0 3.0 0.00 0.42 0.42 73 1014.0
20260507031804 46 359 0.0 2.0 0.00 0.42 0.42 73 1014.0
20260507031304 46 8 0.0 1.0 0.00 0.42 0.42 73 1014.0
20260507030804 46 8 0.0 2.0 0.00 0.42 0.42 73 1014.1
20260507030304 46 326 0.0 3.0 0.00 0.42 0.42 72 1014.1
20260507024804 46 7 0.0 1.0 0.00 0.42 0.42 73 1013.9
20260507024304 46 7 0.0 0.0 0.00 0.42 0.42 73 1013.9
20260507023805 46 7 0.0 0.0 0.00 0.42 0.42 73 1013.8
20260507023304 46 7 0.0 0.0 0.00 0.42 0.42 72 1013.8
20260507022804 46 7 0.0 0.0 0.00 0.42 0.42 72 1013.7
20260507022306 46 7 0.0 0.0 0.00 0.42 0.42 73 1013.8
20260507021804 47 7 0.0 0.0 0.00 0.42 0.42 72 1013.7
20260507021304 47 7 0.0 1.0 0.00 0.42 0.42 72 1013.6
20260507020804 47 7 0.0 0.0 0.00 0.42 0.42 71 1013.5
20260507015806 47 7 0.0 1.0 0.00 0.42 0.42 70 1013.3
20260507015306 47 6 0.0 1.0 0.00 0.42 0.42 70 1013.4
20260507014305 48 92 0.0 1.0 0.00 0.42 0.42 69 1013.1
20260507013804 48 92 0.0 1.0 0.00 0.42 0.42 69 1013.0
20260507013304 48 103 0.0 0.0 0.00 0.42 0.42 69 1012.8
20260507012307 48 88 0.0 1.0 0.00 0.42 0.42 68 1012.7
20260507011804 48 68 0.0 1.0 0.00 0.42 0.42 67 1012.9
20260507010804 49 346 0.0 2.0 0.00 0.42 0.42 66 1013.0
20260507010304 49 22 0.0 2.0 0.00 0.42 0.42 66 1013.0
20260507005804 49 59 1.0 5.0 0.00 0.42 0.42 66 1013.0
20260507004804 49 15 1.0 5.0 0.00 0.42 0.42 66 1013.3
20260507004304 49 344 2.0 6.0 0.00 0.42 0.42 65 1013.2
20260507003804 50 353 0.0 3.0 0.00 0.42 0.42 66 1013.1
20260507003304 50 39 0.0 3.0 0.00 0.42 0.42 66 1013.1
20260507002804 50 6 2.0 6.0 0.00 0.42 0.42 64 1013.2
20260507002306 50 19 0.0 3.0 0.00 0.42 0.42 66 1012.9
20260507001804 50 2 1.0 3.0 0.00 0.42 0.42 65 1012.9
20260507001304 50 359 1.0 3.0 0.00 0.42 0.42 65 1013.0
20260507000805 50 340 0.0 3.0 0.00 0.42 0.42 65 1012.8
20260507000306 51 5 1.0 3.0 0.00 0.42 0.42 65 1012.9
20260506235804 51 339 0.0 1.0 0.00 0.42 0.42 65 1013.1
20260506235306 51 332 1.0 3.0 0.00 0.42 0.42 65 1013.1
20260506234805 51 10 1.0 3.0 0.00 0.42 0.42 65 1012.8
20260506234304 51 342 1.0 3.0 0.00 0.42 0.42 64 1012.9
20260506233804 51 344 1.0 5.0 0.00 0.42 0.42 64 1012.7
20260506233304 51 1 1.0 3.0 0.00 0.42 0.42 64 1012.6
20260506232804 51 11 1.0 2.0 0.00 0.42 0.42 65 1012.5
20260506232306 51 341 1.0 3.0 0.00 0.42 0.42 64 1012.5
20260506231804 52 353 1.0 3.0 0.00 0.42 0.42 64 1012.4
20260506230804 52 8 0.0 1.0 0.00 0.42 0.42 65 1012.3
20260506230304 52 353 1.0 5.0 0.00 0.42 0.42 65 1012.3
20260506225804 52 1 2.0 6.0 0.00 0.42 0.42 63 1012.1
20260506225306 52 13 2.0 7.0 0.00 0.42 0.42 63 1012.0
20260506224804 52 0 1.0 7.0 0.00 0.42 0.42 64 1011.9
20260506224304 52 12 5.0 10.0 0.00 0.42 0.42 62 1012.0
20260506223804 53 326 1.0 5.0 0.00 0.42 0.42 63 1011.8
20260506223304 53 41 3.0 7.0 0.00 0.42 0.42 63 1011.9
20260506222804 53 348 2.0 6.0 0.00 0.42 0.42 64 1011.8
20260506222306 53 323 3.0 8.0 0.00 0.42 0.42 63 1011.8
20260506221804 53 332 3.0 6.0 0.00 0.42 0.42 64 1011.6
20260506220804 54 345 2.0 6.0 0.00 0.42 0.42 66 1011.5